www.pogodaiklimat.ru

Погода и климат >> Архив погоды >> Россия >> Свердловская область >> Висим


ПОГОДА в Висиме

  • Прогноз погоды в Висиме
  • Монитор погоды в Висиме

АРХИВ ПОГОДЫ в Висиме

Время (UTC), дата Ветер
(напр.,м/с)
 
Видим.   Явления Облачность Т
(С)
Тd
(С)
f
(%)
Тe
(С)
Тes
(С)
Комфортность P
(гПа)
Po
(гПа)
Тmin
(С)
Tmax
(С)
R
(мм)
R24
(мм)
S
(см)
12 13.06 СЗ 6
{13}
50 км 6/6 600 м
[Cu med, cong]
+10.8 +0.2 48 +8 +9 1012.3 974.9
15 13.06 СЗ 7-11
{14}
50 км 6/6 600 м
[Cu med, cong]
+8.6 -0.2 54 +5 +5 1013.5 975.8 +10.9
18 13.06 СЗ 2
{11}
50 км 6/4 600 м
[Cu Sc Ac trans]
+5.2 +1.1 75 +3 +3 1015.3 977.1
21 13.06 штиль 0 50 км 3/0
[Ac trans]
+2.8 +0.6 85 +2 +2 1015.6 977.1
00 14.06 Ю 1 50 км 6/0
[Ac und]
+3.0 +1.1 87 +1 +2 1014.6 976.2
03 14.06 З 4 50 км 3/0
[Ac trans]
+7.6 +1.8 67 +4 +7 1013.1 975.3 +1.4
06 14.06 З 6-11
{13}
50 км 4/4 600 м
[Cu med, cong]
+12.0 +0.6 46 +10 +13 1010.9 973.7
09 14.06 З 7-11
{13}
50 км 3/3 600 м
[Cu med, cong]
+14.5 -0.5 36 +13 +16 1008.9 972.2
12 14.06 СЗ 6
{12}
50 км 4/3 600 м
[Cu med, cong Ci fib]
+14.1 -3.1 30 +12 +14 1008.5 971.7
15 14.06 СЗ 4
{12}
50 км 6/4 600 м
[Sc diur, vesp Ci fib]
+13.2 -2.8 33 +12 +12 1008.1 971.2 +15.6
18 14.06 ЮВ 1 50 км 8/5 600 м
[Sc diur, vesp Ci fib]
+7.0 +1.7 69 +6 +6 1009.2 971.5
21 14.06 ЮЗ 2 50 км 3/0
[Ci fib]
+5.7 +1.6 75 +3 +3 1009.4 971.5
00 15.06 Ю 1 10 км 3/0
[Ci fib]
+1.8 +1.8 100 -0 0 1010.1 971.7
03 15.06 штиль 0 50 км 3/0
[Ac trans Ci fib]
+9.2 +3.5 67 +9 +14 1009.4 972.0 +1.0
06 15.06 СЗ 5-11
{11}
50 км 3/3 600 м
[Cu med, cong]
+13.3 -1.2 37 +12 +16 1008.4 971.5
09 15.06 З 4
{11}
50 км 6/4 600 м
[Cu med, cong Ci fib]
+15.0 -0.8 34 +14 +20 1007.5 970.8
12 15.06 СЗ 5
{10}
50 км 6/4 600 м
[Cu med, cong Ci fib]
+15.2 -1.4 32 +14 +16 1007.1 970.5
15 15.06 З 2
{10}
50 км 10/5 300 м
[Sc diur, vesp Cs]
+13.4 +1.1 43 +13 +13 1006.9 970.1 +16.5
18 15.06 З 1 50 км 10/0
[Ac As]
+9.8 +2.2 59 +10 +10 1006.5 969.3
21 15.06 З 3 20 км 10/0
[Ac und]
+8.9 +2.5 64 +7 +7 1005.7 968.4
00 16.06 З 2 10 км слаб. дождь 10/0 300 м
[As op]
+8.0 +3.7 74 +6 +6 1004.6 967.2
03 16.06 З 3 4000 м дождь 10/0 300 м
[As op]
+7.8 +7.6 99 +5 +6 1003.8 966.5 +6.7 2
06 16.06 З 3 20 км {дождь} 9/9 300 м
[Sc]
+10.6 +7.3 80 +9 +10 1003.4 966.4
09 16.06 СЗ 3
{11}
50 км {ливн. осадки} 8/3 300 м
[Cb cap Ci fib]
+11.3 +4.5 63 +10 +17 1003.7 966.8
12 16.06 С 4
{15}
50 км в посл. час ливневой дождь 9/6 300 м
[Cb cap Ci fib]
+11.7 +6.1 68 +10 +11 1004.0 967.2
15 16.06 З 2 50 км {ливн. осадки} 10/5 300 м
[Cb cap Ac lent Ci fib]
+10.3 +6.1 75 +9 +9 1005.2 968.1 +12.9 3
18 16.06 СЗ 2 50 км {ливн. осадки} 4/1 300 м
[Sc diur, vesp Ci fib]
+5.7 +2.7 81 +3 +3 1007.1 969.3
21 16.06 ЮВ 1 10 км ясно +3.2 +2.9 98 +1 +1 1007.6 969.5
00 17.06 ЮВ 1 2000 м дымка ясно +1.1 +1.1 100 -1 -1 1008.8 970.3
03 17.06 ЮЗ 1 50 км 9/0
[Ac trans Ci fib]
+8.0 +4.4 78 +7 +11 1007.7 970.2 +0.8
06 17.06 СЗ 5 50 км 8/8 600 м
[Cu Sc]
+11.8 +2.8 54 +10 +11 1006.4 969.4
09 17.06 З 6-10
{10}
50 км 8/8 600 м
[Cu Sc]
+12.1 +2.9 53 +10 +11 1005.3 968.4
12 17.06 З 7-13
{13}
50 км 8/6 600 м
[Cu Sc]
+13.9 +1.8 44 +12 +12 1003.8 967.2
15 17.06 ЮЗ 2
{14}
50 км в посл. час дождь 9/9 300 м
[Sc]
+10.7 +5.9 72 +10 +10 1003.8 966.8 +14.9 0.0
18 17.06 СЗ 2 50 км {дождь} 9/8 300 м
[Cu Sc Ac und]
+9.1 +8.3 95 +7 +7 1004.1 966.9
21 17.06 С 1 20 км 8/6 600 м
[Cu Sc Ac trans]
+6.0 +5.8 99 +5 +5 1005.7 968.1
00 18.06 штиль 0 10 км 8/6 300 м
[Cu med, cong Ac trans]
+4.2 +4.2 100 +3 +3 1007.4 969.4
03 18.06 Ю 1 50 км 3/0
[Ac trans]
+9.1 +4.1 71 +9 +13 1008.0 970.7 +3.8 0.0
06 18.06 СЗ 6-10
{11}
50 км 8/6 600 м
[Cu med, cong Ci fib]
+11.1 +2.4 55 +8 +10 1008.4 971.3
09 18.06 СЗ 7-13
{13}
50 км 6/5 600 м
[Cu med, cong Ci fib]
+14.5 +1.9 42 +13 +15 1008.2 971.5
12 18.06 СЗ 6
{13}
50 км 8/8 600 м
[Sc diur, vesp]
+14.6 +3.1 46 +13 +14 1008.3 971.6
15 18.06 З 4 50 км 6/6 600 м
[Sc diur, vesp]
+15.0 +4.3 49 +14 +14 1007.8 971.2 +16.2
18 18.06 Ю 1 50 км 3/3 600 м
[Sc diur, vesp]
+8.9 +4.8 75 +8 +8 1009.2 971.8
21 18.06 Ю 2 50 км 3/0
[Ac trans]
+7.5 +3.7 77 +6 +6 1009.7 972.1
00 19.06 Ю 2 50 км 6/0
[Ac As]
+7.4 +4.2 80 +5 +5 1010.1 972.4
03 19.06 З 4 50 км 6/4 600 м
[Sc Ac trans]
+12.9 +5.0 59 +11 +13 1009.4 972.5 +7.1
06 19.06 З 4 50 км 8/6 600 м
[Sc Ac trans]
+16.1 +6.2 52 +15 +18 1008.5 972.0
09 19.06 З 5
{11}
50 км 8/5 600 м
[Cu Sc Ac As]
+19.8 +6.5 42 +20 +23 1007.8 971.8
12 19.06 СЗ 3
{10}
50 км в посл. час ливневой дождь 9/8 600 м
[Cb calv Ac As]
+17.9 +10.4 61 +18 +19 1008.3 972.1
15 19.06 ЮВ 1 20 км {гроза, ливн. осадки} 8/8 600 м
[Cu Sc]
+15.3 +14.8 97 +16 +16 1008.9 972.4 +20.8 2
18 19.06 ЮЗ 1 10 км {гроза} 6/1 600 м
[Cu med, cong Ac trans Ci fib]
+12.5 +12.5 100 +12 +12 1009.6 972.7
21 19.06 Ю 1 10 км 3/0
[Ac trans]
+10.8 +10.8 100 +10 +10 1010.4 973.3
00 20.06 Ю 2 10 км 6/0
[Ac trans Ci fib]
+10.0 +10.0 100 +8 +8 1011.0 973.7
03 20.06 Ю 2 20 км 9/0
[Ac trans Ci fib]
+15.4 +13.7 90 +15 +18 1011.0 974.4 +9.6
06 20.06 ЮЗ 3 50 км 6/1 600 м
[Cu med, cong Ac trans Ci fib]
+19.9 +12.8 64 +22 +29 комфорт 1010.1 974.1

 

Местоположение метеостанции Висим (Свердловская область, Россия): широта 57.67 долгота 59.53 высота над уровнем моря 314 м.

В архиве по умолчанию представлена погода в Висиме за последнюю неделю. Архивные данные за месяц целиком и за предыдущие месяцы, начиная с января 2011 года, Вы можете получить, выбрав интересующий диапазон дат из раскрывающегося списка и нажав кнопку "Ввод!".


*Определитесь, кто Вы:
робот инопланетянин человек

Внимание! Время в таблицах - всемирное. Для получения местного времени необходимо прибавить поправку, которая равна 5 ч.

Смотрите также архив погоды в соседних городах и на ближайших метеорологических станциях:

Погода в Нижнем Тагиле (Свердловская область, Россия) (40 км)
Погода в Невьянске (Свердловская область, Россия) (47 км)
Погода в Кыне (Пермский край, Россия) (55 км)
Погода в Кушве (Свердловская область, Россия) (73 км)
Погода в Шамарах (Свердловская область, Россия) (86 км)
Погода в Ревде (Свердловская область, Россия) (92 км)
Погода в Бисерти (Свердловская область, Россия) (92 км)
Погода в Бисере (Пермский край, Россия) (103 км)
Погода в Качканаре (Свердловская область, Россия) (112 км)
Погода в Екатеринбурге (Свердловская область, Россия) (114 км)

Пояснения к столбцам:

Ветер - указаны скорость ветра в м/с - средняя за 10 мин, порывы в срок и между сроками (в фигурных скобках) и направление, откуда дует ветер: С - северный, СВ - северо-восточный, В - восточный, ЮВ - юго-восточный, Ю - южный, ЮЗ - юго-западный, З - западный, СЗ - северо-западный.
Видимость - горизонтальная дальность видимости в метрах или километрах. При видимости от 1 до 10 км при отсутствии осадков обычно наблюдается дымка, при ухудшении видимости до 1 км и менее - туман. В сухую погоду видимость может ухудшаться дымом, пылью или мглою.
Явления - указаны атмосферные явления, наблюдавшиеся в срок или в последний час перед сроком; фигурными скобками обозначены явления, наблюдавшиеся между сроками (за 1-3 часа до срока); квадратными скобками обозначены град или гололедные отложения с указанием их диаметра в мм.
Облачность - указаны через наклонную черту общая и нижняя облачность в баллах и высота нижней границы облаков в метрах; квадратными скобками обозначены формы облаков: Ci - перистые, Cs - перисто-слоистые, Cc - перисто-кучевые, Ac - высококучевые, As - высокослоистые, Sc - слоисто-кучевые, Ns - слоисто-дождевые, Cu - кучевые, Cb - кучево-дождевые. Подробнее классификацию облаков см. в Атласе облаков (PDF).
T - Температура воздуха - температура, измеренная на высоте 2 м над землей.
Td - Температура точки росы - температура, при понижении до которой содержащийся в воздухе водяной пар достигнет насыщения.
f - Относительная влажность воздуха - влажноcть воздуха, измеренная на высоте 2 м над землей.
Te - Эффективная температура - температура, которую ощущает одетый по сезону человек в тени. Характеристика душности погоды. При расчете учитывается влияние влажности воздуха и скорости ветра на теплоощущения человека.
Tes - Эффективная температура на солнце - температура, которую ощущает человек, с поправкой на солнечный нагрев. Характеристика знойности погоды. Зависит от высоты солнца над горизонтом, облачности и скорости ветра. Ночью, в пасмурную погоду, а также при ветре 12 м/с и более поправка равна нулю.
P - Атмосферное давление - приведенное к уровню моря атмосферное давление.
Po - Атмосферное давление - измеренное на уровне метеостанции атмосферное давление.
Tmin - Минимальная температура - минимум температуры воздуха на высоте 2 м над землей.
Tmax - Максимальная температура - максимум температуры воздуха на высоте 2 м над землей.
R - Количество осадков - Количество выпавших осадков за период времени, мм. При наведении курсора мыши на число - период времени, за который выпало указанное количество осадков.
R24 - Количество осадков - Количество выпавших осадков за 24 часа, мм.
S - Снежный покров - Высота снежного покрова, см. При наведении курсора мыши на число - состояние снежного покрова и степень покрытия местности в баллах.